Location: Jaite
(41.2884°N, 81.5737°W)
Time: 00:51:13
(UTC+00:00)

ACS3 Solar Sail - Pass Details

Date: 06 October 2024
Orbit: 961 x 1022 km, 97.5° (Epoch: 03 November)

Event Time Altitude Azimuth Distance (km) Brightness Sun altitude
Exits shadow 03:09:57 14° 265° (W) 2,519 4.2 -44.5°
Maximum altitude 03:10:46 14° 274° (W) 2,502 4.3 -44.6°
Drops below altitude 10° 03:14:04 10° 306° (NW) 2,830 4.8 -45.1°
Sets 03:18:01 0° 329° (NNW) 3,794 5.6 -45.6°
